World > North America > United States > Minnesota
Hourly regional weather for Balaton, MinnesotaBalaton, Minnesota Regional Hourly Weather

Balaton, Minnesota Regional Weather

regional weather balaton, mnHOURLY REGIONAL WEATHER FOR BALATON, MN
Lat: 44.23N, Lon: 95.87W 
Web Search
Balaton Weather Warning NWS WEATHER ALERT FOR THE BALATON, MN AREA - Issued: 1006 PM CDT Sat Jul 31 2021 Balaton Weather Warning  

Did you know? You can add this page to Bookmarks by pressing the Ctrl key & d key at the same time. Mac users press command & d.

Feedback


°F Click to change Balaton hourly weather to Imperial units.Click to change Balaton hourly weather to Metric units. °C
Balaton Weather Map
UTC Time: 8/1/2021, 08:00
Your Time:

Balaton, MN Regional Weather

Expires:202108010800;;790396
ASUS43 KMPX 010710
RWRMN 
WEATHER ROUNDUP FOR MINNESOTA
NATIONAL WEATHER SERVICE TWIN CITIES/CHANHASSEN MN
200 AM CDT SUN AUG 01 2021


NOTE: "FAIR" INDICATES FEW OR NO CLOUDS BELOW 12,000 FEET WITH NO
SIGNIFICANT WEATHER AND/OR OBSTRUCTIONS TO VISIBILITY. N/A MEANS
CURRENT SKY AND/OR WEATHER CONDITIONS ARE NOT AVAILABLE.


MNZ071>073-080-081-089-090-097-098-010800-
   Southwest Minnesota   
  
CITY           SKY/WX    TMP DP  RH WIND       PRES   REMARKS
MONTEVIDEO     CLEAR     61  48  63 N7        30.16R HAZE             
GRANITE FALLS  CLEAR     59  53  81 W7        30.17R HAZE             
CANBY          CLEAR     62  51  66 W7        30.19R HAZE             
MARSHALL       CLEAR     57  52  83 NW8       30.17R HAZE             
REDWOOD FALLS  CLEAR     62  53  72 NW7       30.13S HAZE             
OLIVIA         CLEAR     57  52  82 NW7       30.13R HAZE             
PIPESTONE      CLEAR     61  52  72 NW3       30.19S HAZE             
WINDOM         CLEAR     59  54  82 NW8       30.14S HAZE             
WORTHINGTON    CLEAR     60  53  77 NW9       30.18R                  
JACKSON        CLEAR     57  52  82 NW7       30.15S                  
TRACY          CLEAR     60  50  70 NW8       30.16S HAZE             
SLAYTON          N/A     55  51  87 NW9       30.18S FOG              
$$

SKY/WX - Weather  TMP - Temperature  DP - Dew Point  RH - Relative Humidity
WIND - Wind Direction/Speed PRES - Barometric Pressure VSB - Visibility
WCI - Wind Chill Index E13G22 Wind - East Wind 13 mph/Gusts of 22 mph